Darstellungsparameter: Aktuell verwendete Einstellungen:
Skalierung der Graphiken ... ?
xyx+y,   Skalierungsfaktor:      Skalierung: Modus: x, Faktor: 1
Darstellungszeitraum ... ?
Vom - - bis: - -   Zeitraum: 27.07.2019 - 27.07.2019
Min/Max/Avg-Anzeige ... ?
Zeige MMA aktuell
Zeige MMA Monat
Zeige MMA alles
Zeige --A aktuell
Zeige --A Monat
Zeige --A alles
Keine MMA-Anzeige
MMA:
Keine MMA-Graphiken
MMA-Basis: 27.07.2019 - 27.07.2019
Quicknavigation für Darstellung... ?
Tage:      1T, 2T, 3T, 5T -1T -2T -3T -5T +1T +2T +3T +5T
Wochen: 1W, 2W, 3W -1W -2W -3W +1W +2W +3W
Monate: 1M, 3M, 6M -1M -3M -6M +1M +3M +6M
Jahre:    1J, 3J, 5J, 10J -1J -3J -5J -10J +1J +3J +5J +10J
Nutze für die Darstellung ... ?
Originaldaten oder Mittelwerte auf ...
Stundenbasis Tagesbasis Wochenbasis
Monatsbasis Jahresbasis      Datenbasis: Original-Daten
Darstellen als:
Statistik (Auto) Statistik J:M      Darstellung:
Zur Graphik,    zurück zur Übersicht aller Sensoren.
 
Tabellarische Datenbersicht: ?
 
Sensor: Nr:Datum:Temp:Feuchte:Taupunkt:
Aussen-T/F 1 27-07-2019 00:00:00 23.6 C 69 % 17.58 C
2 27-07-2019 00:05:00 23.4 C 69 % 17.39 C
3 27-07-2019 00:10:00 23.3 C 69 % 17.29 C
4 27-07-2019 00:15:00 23.3 C 70 % 17.52 C
5 27-07-2019 00:20:00 23.2 C 70 % 17.42 C
6 27-07-2019 00:25:00 23.2 C 70 % 17.42 C
7 27-07-2019 00:30:00 23.1 C 70 % 17.33 C
8 27-07-2019 00:35:00 23.1 C 71 % 17.55 C
9 27-07-2019 00:40:00 23 C 71 % 17.46 C
10 27-07-2019 00:45:00 22.9 C 71 % 17.36 C
11 27-07-2019 00:50:00 22.9 C 71 % 17.36 C
12 27-07-2019 00:55:00 22.8 C 72 % 17.49 C
13 27-07-2019 01:00:00 22.8 C 72 % 17.49 C
14 27-07-2019 01:05:00 22.7 C 72 % 17.39 C
15 27-07-2019 01:10:00 22.7 C 73 % 17.61 C
16 27-07-2019 01:15:00 22.6 C 73 % 17.51 C
17 27-07-2019 01:20:00 22.7 C 74 % 17.83 C
18 27-07-2019 01:25:00 22.7 C 73 % 17.61 C
19 27-07-2019 01:30:00 22.7 C 73 % 17.61 C
20 27-07-2019 01:35:00 22.7 C 73 % 17.61 C
21 27-07-2019 01:40:00 22.7 C 74 % 17.83 C
22 27-07-2019 01:45:00 22.6 C 74 % 17.73 C
23 27-07-2019 01:50:00 22.4 C 74 % 17.54 C
24 27-07-2019 01:55:00 22.3 C 74 % 17.44 C
25 27-07-2019 02:00:00 22.3 C 74 % 17.44 C
Sensor: Nr:Datum:Temp:Feuchte:Taupunkt:
Aussen-T/F 26 27-07-2019 02:05:00 22.3 C 73 % 17.23 C
27 27-07-2019 02:10:00 22.3 C 73 % 17.23 C
28 27-07-2019 02:15:00 22.3 C 75 % 17.65 C
29 27-07-2019 02:20:00 22.4 C 75 % 17.75 C
30 27-07-2019 02:25:00 22.4 C 76 % 17.96 C
31 27-07-2019 02:30:00 22.4 C 76 % 17.96 C
32 27-07-2019 02:35:00 22.4 C 76 % 17.96 C
33 27-07-2019 02:40:00 22.3 C 76 % 17.86 C
34 27-07-2019 02:45:00 22.3 C 76 % 17.86 C
35 27-07-2019 02:50:00 22.3 C 76 % 17.86 C
36 27-07-2019 02:55:00 22.3 C 76 % 17.86 C
37 27-07-2019 03:00:00 22.3 C 76 % 17.86 C
38 27-07-2019 03:05:00 22.3 C 76 % 17.86 C
39 27-07-2019 03:10:00 22.3 C 74 % 17.44 C
40 27-07-2019 03:15:00 22.4 C 74 % 17.54 C
41 27-07-2019 03:20:00 22.5 C 73 % 17.42 C
42 27-07-2019 03:25:00 22.6 C 72 % 17.3 C
43 27-07-2019 03:30:00 22.6 C 71 % 17.07 C
44 27-07-2019 03:35:00 22.8 C 69 % 16.82 C
45 27-07-2019 03:40:00 23.2 C 75 % 18.52 C
46 27-07-2019 03:45:00 23.1 C 78 % 19.05 C
47 27-07-2019 03:50:00 22.7 C 79 % 18.87 C
48 27-07-2019 03:55:00 22.3 C 80 % 18.68 C
49 27-07-2019 04:00:00 21.9 C 83 % 18.88 C
50 27-07-2019 04:05:00 21.7 C 84 % 18.88 C
Sensor: Nr:Datum:Temp:Feuchte:Taupunkt:
Aussen-T/F 51 27-07-2019 04:10:00 21.4 C 85 % 18.77 C
52 27-07-2019 04:15:00 21.1 C 85 % 18.48 C
53 27-07-2019 04:20:00 20.9 C 86 % 18.47 C
54 27-07-2019 04:25:00 20.8 C 87 % 18.56 C
55 27-07-2019 04:30:00 20.7 C 87 % 18.46 C
56 27-07-2019 04:35:00 20.6 C 87 % 18.36 C
57 27-07-2019 04:40:00 20.5 C 88 % 18.44 C
58 27-07-2019 04:45:00 20.4 C 88 % 18.34 C
59 27-07-2019 04:50:00 20.4 C 88 % 18.34 C
60 27-07-2019 04:55:00 20.4 C 89 % 18.53 C
61 27-07-2019 05:00:00 20.4 C 88 % 18.34 C
62 27-07-2019 05:05:00 20.4 C 88 % 18.34 C
63 27-07-2019 05:10:00 20.3 C 89 % 18.43 C
64 27-07-2019 05:15:00 20.3 C 89 % 18.43 C
65 27-07-2019 05:20:00 20.3 C 89 % 18.43 C
66 27-07-2019 05:25:00 20.3 C 89 % 18.43 C
67 27-07-2019 05:30:00 20.2 C 89 % 18.33 C
68 27-07-2019 05:35:00 20.3 C 89 % 18.43 C
69 27-07-2019 05:40:00 20.2 C 89 % 18.33 C
70 27-07-2019 05:45:00 20.2 C 89 % 18.33 C
71 27-07-2019 05:50:00 20.2 C 89 % 18.33 C
72 27-07-2019 05:55:00 20.2 C 88 % 18.15 C
73 27-07-2019 06:00:00 20.2 C 88 % 18.15 C
74 27-07-2019 06:05:00 20.3 C 89 % 18.43 C
75 27-07-2019 06:10:00 20.3 C 88 % 18.25 C
Sensor: Nr:Datum:Temp:Feuchte:Taupunkt:
Aussen-T/F 76 27-07-2019 06:15:00 20.3 C 89 % 18.43 C
77 27-07-2019 06:20:00 20.3 C 88 % 18.25 C
78 27-07-2019 06:25:00 20.4 C 89 % 18.53 C
79 27-07-2019 06:30:00 20.6 C 89 % 18.72 C
80 27-07-2019 06:35:00 20.7 C 89 % 18.82 C
81 27-07-2019 06:40:00 20.7 C 88 % 18.64 C
82 27-07-2019 06:45:00 20.8 C 88 % 18.74 C
83 27-07-2019 06:50:00 20.8 C 89 % 18.92 C
84 27-07-2019 06:55:00 20.9 C 89 % 19.02 C
85 27-07-2019 07:00:00 20.9 C 89 % 19.02 C
86 27-07-2019 07:05:00 21 C 89 % 19.12 C
87 27-07-2019 07:10:00 20.9 C 88 % 18.84 C
88 27-07-2019 07:15:00 21 C 89 % 19.12 C
89 27-07-2019 07:20:00 21.1 C 88 % 19.03 C
90 27-07-2019 07:25:00 21.2 C 88 % 19.13 C
91 27-07-2019 07:30:00 21.3 C 89 % 19.41 C
92 27-07-2019 07:35:00 21.4 C 89 % 19.51 C
93 27-07-2019 07:40:00 21.4 C 88 % 19.33 C
94 27-07-2019 07:45:00 21.5 C 88 % 19.43 C
95 27-07-2019 07:50:00 21.6 C 87 % 19.34 C
96 27-07-2019 07:55:00 21.7 C 86 % 19.25 C
97 27-07-2019 08:00:00 21.8 C 86 % 19.35 C
98 27-07-2019 08:05:00 21.9 C 86 % 19.45 C
99 27-07-2019 08:10:00 22.1 C 86 % 19.65 C
100 27-07-2019 08:15:00 22.1 C 84 % 19.27 C
Sensor: Nr:Datum:Temp:Feuchte:Taupunkt:
Aussen-T/F 101 27-07-2019 08:20:00 22.2 C 83 % 19.17 C
102 27-07-2019 08:25:00 22.3 C 82 % 19.08 C
103 27-07-2019 08:30:00 22.5 C 81 % 19.08 C
104 27-07-2019 08:35:00 22.8 C 80 % 19.17 C
105 27-07-2019 08:40:00 23 C 78 % 18.96 C
106 27-07-2019 08:45:00 23.2 C 78 % 19.15 C
107 27-07-2019 08:50:00 23.4 C 77 % 19.14 C
108 27-07-2019 08:55:00 23.6 C 76 % 19.12 C
109 27-07-2019 09:00:00 23.8 C 76 % 19.31 C
110 27-07-2019 09:05:00 24.1 C 76 % 19.6 C
111 27-07-2019 09:10:00 24.3 C 76 % 19.8 C
112 27-07-2019 09:15:00 24.4 C 74 % 19.46 C
113 27-07-2019 09:20:00 24.6 C 73 % 19.44 C
114 27-07-2019 09:25:00 24.8 C 73 % 19.63 C
115 27-07-2019 09:30:00 24.9 C 73 % 19.72 C
116 27-07-2019 09:35:00 25.1 C 73 % 19.92 C
117 27-07-2019 09:40:00 25.1 C 72 % 19.69 C
118 27-07-2019 09:45:00 25.2 C 72 % 19.79 C
119 27-07-2019 09:50:00 25.2 C 72 % 19.79 C
120 27-07-2019 09:55:00 25.2 C 72 % 19.79 C
121 27-07-2019 10:00:00 25.2 C 72 % 19.79 C
122 27-07-2019 10:05:00 25.3 C 71 % 19.66 C
123 27-07-2019 10:10:00 25.3 C 71 % 19.66 C
124 27-07-2019 10:15:00 25.3 C 80 % 21.6 C
125 27-07-2019 10:20:00 25 C 82 % 21.71 C
Sensor: Nr:Datum:Temp:Feuchte:Taupunkt:
Aussen-T/F 126 27-07-2019 10:25:00 24.7 C 84 % 21.81 C
127 27-07-2019 10:30:00 24.4 C 85 % 21.71 C
128 27-07-2019 10:35:00 24.2 C 86 % 21.71 C
129 27-07-2019 10:40:00 24.1 C 87 % 21.8 C
130 27-07-2019 10:45:00 24.1 C 88 % 21.99 C
131 27-07-2019 10:50:00 24.1 C 87 % 21.8 C
132 27-07-2019 10:55:00 24 C 87 % 21.7 C
133 27-07-2019 11:00:00 24 C 88 % 21.89 C
134 27-07-2019 11:05:00 24.1 C 88 % 21.99 C
135 27-07-2019 11:10:00 24.1 C 88 % 21.99 C
136 27-07-2019 11:15:00 24.1 C 88 % 21.99 C
137 27-07-2019 11:20:00 24.2 C 88 % 22.08 C
138 27-07-2019 11:25:00 24.2 C 88 % 22.08 C
139 27-07-2019 11:30:00 24.2 C 87 % 21.9 C
140 27-07-2019 11:35:00 24 C 85 % 21.32 C
141 27-07-2019 11:40:00 23.9 C 85 % 21.22 C
142 27-07-2019 11:45:00 23.7 C 85 % 21.03 C
143 27-07-2019 11:50:00 23.5 C 84 % 20.64 C
144 27-07-2019 11:55:00 23.3 C 85 % 20.63 C
145 27-07-2019 12:00:00 23.2 C 85 % 20.54 C
146 27-07-2019 12:05:00 23.2 C 87 % 20.91 C
147 27-07-2019 12:10:00 23.2 C 88 % 21.1 C
148 27-07-2019 12:15:00 23.2 C 88 % 21.1 C
149 27-07-2019 12:20:00 23.2 C 86 % 20.73 C
150 27-07-2019 12:25:00 23.3 C 85 % 20.63 C
Sensor: Nr:Datum:Temp:Feuchte:Taupunkt:
Aussen-T/F 151 27-07-2019 12:30:00 23.5 C 84 % 20.64 C
152 27-07-2019 12:35:00 23.8 C 81 % 20.34 C
153 27-07-2019 12:40:00 24.1 C 80 % 20.43 C
154 27-07-2019 12:45:00 24.4 C 82 % 21.12 C
155 27-07-2019 12:50:00 24.8 C 78 % 20.7 C
156 27-07-2019 12:55:00 25.1 C 78 % 20.99 C
157 27-07-2019 13:00:00 25.3 C 75 % 20.55 C
158 27-07-2019 13:05:00 25.5 C 76 % 20.95 C
159 27-07-2019 13:10:00 25.7 C 74 % 20.71 C
160 27-07-2019 13:15:00 26 C 75 % 21.22 C
161 27-07-2019 13:20:00 26.2 C 74 % 21.2 C
162 27-07-2019 13:25:00 26.2 C 74 % 21.2 C
163 27-07-2019 13:30:00 26.1 C 75 % 21.32 C
164 27-07-2019 13:35:00 26.2 C 75 % 21.41 C
165 27-07-2019 13:40:00 26.2 C 74 % 21.2 C
166 27-07-2019 13:45:00 26.2 C 72 % 20.75 C
167 27-07-2019 13:50:00 26.2 C 70 % 20.29 C
168 27-07-2019 13:55:00 26.2 C 72 % 20.75 C
169 27-07-2019 14:00:00 26.2 C 69 % 20.06 C
170 27-07-2019 14:05:00 26.1 C 70 % 20.2 C
171 27-07-2019 14:10:00 25.9 C 70 % 20.01 C
172 27-07-2019 14:15:00 25.9 C 68 % 19.54 C
173 27-07-2019 14:20:00 25.8 C 70 % 19.91 C
174 27-07-2019 14:25:00 25.7 C 69 % 19.58 C
175 27-07-2019 14:30:00 25.6 C 71 % 19.95 C
Sensor: Nr:Datum:Temp:Feuchte:Taupunkt:
Aussen-T/F 176 27-07-2019 14:35:00 25.5 C 71 % 19.85 C
177 27-07-2019 14:40:00 25.5 C 73 % 20.3 C
178 27-07-2019 14:45:00 25.5 C 73 % 20.3 C
179 27-07-2019 14:50:00 25.5 C 75 % 20.74 C
180 27-07-2019 14:55:00 25.5 C 74 % 20.52 C
181 27-07-2019 15:00:00 25.3 C 74 % 20.33 C
182 27-07-2019 15:05:00 25.1 C 74 % 20.14 C
183 27-07-2019 15:10:00 24.8 C 74 % 19.85 C
184 27-07-2019 15:15:00 24.7 C 75 % 19.97 C
185 27-07-2019 15:20:00 24.7 C 75 % 19.97 C
186 27-07-2019 15:25:00 24.8 C 75 % 20.06 C
187 27-07-2019 15:30:00 24.8 C 74 % 19.85 C
188 27-07-2019 15:35:00 25 C 74 % 20.04 C
189 27-07-2019 15:40:00 25.1 C 74 % 20.14 C
190 27-07-2019 15:45:00 25.2 C 73 % 20.01 C
191 27-07-2019 15:50:00 25.4 C 73 % 20.21 C
192 27-07-2019 15:55:00 25.6 C 74 % 20.62 C
193 27-07-2019 16:00:00 25.8 C 72 % 20.37 C
194 27-07-2019 16:05:00 26.1 C 70 % 20.2 C
195 27-07-2019 16:10:00 26.2 C 68 % 19.82 C
196 27-07-2019 16:15:00 26.2 C 67 % 19.59 C
197 27-07-2019 16:20:00 26.2 C 68 % 19.82 C
198 27-07-2019 16:25:00 26.3 C 68 % 19.92 C
199 27-07-2019 16:30:00 26.3 C 67 % 19.68 C
200 27-07-2019 16:35:00 26.2 C 67 % 19.59 C
Sensor: Nr:Datum:Temp:Feuchte:Taupunkt:
Aussen-T/F 201 27-07-2019 16:40:00 25.9 C 68 % 19.54 C
202 27-07-2019 16:45:00 25.7 C 67 % 19.11 C
203 27-07-2019 16:50:00 25.5 C 69 % 19.39 C
204 27-07-2019 16:55:00 25.2 C 71 % 19.56 C
205 27-07-2019 17:00:00 24.9 C 73 % 19.72 C
206 27-07-2019 17:05:00 24.6 C 74 % 19.66 C
207 27-07-2019 17:10:00 24.5 C 76 % 19.99 C
208 27-07-2019 17:15:00 24.5 C 77 % 20.2 C
209 27-07-2019 17:20:00 24.5 C 77 % 20.2 C
210 27-07-2019 17:25:00 24.5 C 77 % 20.2 C
211 27-07-2019 17:30:00 24.4 C 76 % 19.89 C
212 27-07-2019 17:35:00 24.4 C 76 % 19.89 C
213 27-07-2019 17:40:00 24.4 C 77 % 20.1 C
214 27-07-2019 17:45:00 24.4 C 76 % 19.89 C
215 27-07-2019 17:50:00 24.4 C 76 % 19.89 C
216 27-07-2019 17:55:00 24.4 C 76 % 19.89 C
217 27-07-2019 18:00:00 24.4 C 77 % 20.1 C
218 27-07-2019 18:05:00 24.4 C 77 % 20.1 C
219 27-07-2019 18:10:00 24.4 C 76 % 19.89 C
220 27-07-2019 18:15:00 24.6 C 77 % 20.3 C
221 27-07-2019 18:20:00 24.8 C 76 % 20.28 C
222 27-07-2019 18:25:00 25.1 C 75 % 20.35 C
223 27-07-2019 18:30:00 25.4 C 75 % 20.64 C
224 27-07-2019 18:35:00 25.3 C 75 % 20.55 C
225 27-07-2019 18:40:00 25.3 C 75 % 20.55 C
Sensor: Nr:Datum:Temp:Feuchte:Taupunkt:
Aussen-T/F 226 27-07-2019 18:45:00 25.2 C 75 % 20.45 C
227 27-07-2019 18:50:00 25.1 C 75 % 20.35 C
228 27-07-2019 18:55:00 24.9 C 76 % 20.38 C
229 27-07-2019 19:00:00 24.7 C 77 % 20.39 C
230 27-07-2019 19:05:00 24.5 C 77 % 20.2 C
231 27-07-2019 19:10:00 24.3 C 76 % 19.8 C
232 27-07-2019 19:15:00 24.1 C 77 % 19.81 C
233 27-07-2019 19:20:00 23.9 C 79 % 20.03 C
234 27-07-2019 19:25:00 23.8 C 81 % 20.34 C
235 27-07-2019 19:30:00 23.7 C 82 % 20.44 C
236 27-07-2019 19:35:00 23.6 C 83 % 20.54 C
237 27-07-2019 19:40:00 23.4 C 84 % 20.54 C
238 27-07-2019 19:45:00 23.4 C 84 % 20.54 C
239 27-07-2019 19:50:00 23.4 C 85 % 20.73 C
240 27-07-2019 19:55:00 23.3 C 84 % 20.44 C
241 27-07-2019 20:00:00 23.2 C 84 % 20.34 C
242 27-07-2019 20:05:00 23.1 C 85 % 20.44 C
243 27-07-2019 20:10:00 23.1 C 85 % 20.44 C
244 27-07-2019 20:15:00 23 C 85 % 20.34 C
245 27-07-2019 20:20:00 23 C 85 % 20.34 C
246 27-07-2019 20:25:00 22.9 C 85 % 20.24 C
247 27-07-2019 20:30:00 22.8 C 85 % 20.14 C
248 27-07-2019 20:35:00 22.8 C 85 % 20.14 C
249 27-07-2019 20:40:00 22.8 C 85 % 20.14 C
250 27-07-2019 20:45:00 22.7 C 85 % 20.05 C
Sensor: Nr:Datum:Temp:Feuchte:Taupunkt:
Aussen-T/F 251 27-07-2019 20:50:00 22.6 C 85 % 19.95 C
252 27-07-2019 20:55:00 22.6 C 85 % 19.95 C
253 27-07-2019 21:00:00 22.4 C 85 % 19.75 C
254 27-07-2019 21:05:00 22.4 C 85 % 19.75 C
255 27-07-2019 21:10:00 22.3 C 85 % 19.65 C
256 27-07-2019 21:15:00 22.3 C 85 % 19.65 C
257 27-07-2019 21:20:00 22.2 C 86 % 19.75 C
258 27-07-2019 21:25:00 22.1 C 86 % 19.65 C
259 27-07-2019 21:30:00 22.1 C 86 % 19.65 C
260 27-07-2019 21:35:00 21.9 C 86 % 19.45 C
261 27-07-2019 21:40:00 21.9 C 86 % 19.45 C
262 27-07-2019 21:45:00 21.8 C 86 % 19.35 C
263 27-07-2019 21:50:00 21.8 C 86 % 19.35 C
264 27-07-2019 21:55:00 21.7 C 86 % 19.25 C
265 27-07-2019 22:00:00 21.7 C 86 % 19.25 C
266 27-07-2019 22:05:00 21.6 C 87 % 19.34 C
267 27-07-2019 22:10:00 21.6 C 87 % 19.34 C
268 27-07-2019 22:15:00 21.6 C 87 % 19.34 C
269 27-07-2019 22:20:00 21.5 C 87 % 19.24 C
270 27-07-2019 22:25:00 21.4 C 87 % 19.15 C
271 27-07-2019 22:30:00 21.4 C 87 % 19.15 C
272 27-07-2019 22:35:00 21.4 C 87 % 19.15 C
273 27-07-2019 22:40:00 21.3 C 87 % 19.05 C
274 27-07-2019 22:45:00 21.3 C 88 % 19.23 C
275 27-07-2019 22:50:00 21.3 C 88 % 19.23 C
Sensor: Nr:Datum:Temp:Feuchte:Taupunkt:
Aussen-T/F 276 27-07-2019 22:55:00 21.3 C 88 % 19.23 C
277 27-07-2019 23:00:00 21.3 C 88 % 19.23 C
278 27-07-2019 23:05:00 21.2 C 88 % 19.13 C
279 27-07-2019 23:10:00 21.2 C 88 % 19.13 C
280 27-07-2019 23:15:00 21.2 C 89 % 19.31 C
281 27-07-2019 23:20:00 21.2 C 89 % 19.31 C
282 27-07-2019 23:25:00 21.2 C 89 % 19.31 C
283 27-07-2019 23:30:00 21.1 C 89 % 19.22 C
284 27-07-2019 23:35:00 21.1 C 89 % 19.22 C
285 27-07-2019 23:40:00 21.1 C 89 % 19.22 C
286 27-07-2019 23:45:00 21.1 C 89 % 19.22 C
287 27-07-2019 23:50:00 21 C 89 % 19.12 C
288 27-07-2019 23:55:00 21 C 89 % 19.12 C

Legende:
   Min
   Max


Maximal/Minimal-Werte vom 27.07.2019 - 27.07.2019

Sensor Min Max Avg
Temp
(Aussen-T/F)
20.2 °C
27-07-2019  05:30:00
26.3 °C
27-07-2019  16:25:00
23.2 °C
Feuchte
(Aussen-T/F)
67 %
27-07-2019  16:15:00
89 %
27-07-2019  04:55:00
79.93 %
Taupunkt
(Aussen-T/F)
16.82 C
27-07-2019  03:35:00
22.08 C
27-07-2019  11:20:00
19.41 C

Die Daten stammen von einer Davis Vantage Pro 2 Wetter-Station und werden unter Linux mit der Software wview2wettercgi und aufbereitet. Alle Angaben erfolgen ohne Gewähr für ihre Vollständigkeit oder Richtigkeit.
Kontakt: Rainer Krienke krienke@uni-koblenz.de . Meine Webseiten an der Uni Koblenz oder privat.
Version: $Revision: 0.78 $